User: anonymous   Login
Location: Unspecified
(52.0178°N, 0.0000°E)
Time: 17:02:53
(UTC+00:00)
Language:

JY1SAT - Orbit

View from above orbital plane
View from above orbital plane
View from above satellite
View from above satellite

Ground track
Ground track

The orbit data is extracted from the following two-line orbital elements,

1 43803U 18099AX  19202.15991559  .00000364  00000-0  38270-4 0  9990
2 43803  97.7414 273.7029 0014259 215.5955 144.4316 14.95283525 34278
Epoch (UTC): 21 July 2019 03:50:16
Eccentricity: 0.0014259
inclination: 97.7414°
perigee height: 571 km
apogee height: 591 km
right ascension of ascending node: 273.7029°
argument of perigee: 215.5955°
revolutions per day: 14.95283525
mean anomaly at epoch: 144.4316°
orbit number at epoch: 3427

The dashed part of the orbit path shows where the satellite is in the earth's shadow,  

DLR